Location: Doverdale
(52.2833°N, 2.2000°W)
Time: 22:47:01
(UTC+00:00)

Cosmos 1980 Rocket - Visible Passes

Search period start: 01 March 2021 00:00
Search period end: 11 March 2021 00:00
Orbit: 827 x 851 km, 71.0° (Epoch: 01 March)

Date Brightness Start Highest point End Pass type
(mag) Time Alt. Az. Time Alt. Az. Time Alt. Az.
01 Mar 4.9 01:02:46 10° NNW 01:03:31 13° NNW 01:03:31 13° NNW visible
01 Mar 3.5 19:27:22 10° WSW 19:32:42 40° NW 19:38:04 10° NNE visible
01 Mar 4.8 21:15:04 10° WNW 21:18:22 15° NNW 21:21:42 10° NNE visible
01 Mar 4.9 23:03:00 10° NNW 23:05:02 12° N 23:06:24 11° NNE visible
02 Mar 4.9 00:47:05 10° NNW 00:48:09 14° N 00:48:09 14° N visible
02 Mar 3.5 19:11:34 10° WSW 19:16:57 42° NW 19:22:22 10° NNE visible
02 Mar 4.8 20:59:11 10° WNW 21:02:35 16° NNW 21:05:59 10° NNE visible
02 Mar 4.9 22:47:14 10° NNW 22:49:14 12° N 22:51:01 10° NNE visible
03 Mar 4.8 00:31:22 10° NNW 00:32:46 15° N 00:32:46 15° N visible
03 Mar 3.4 18:55:48 10° WSW 19:01:12 43° NW 19:06:40 10° NNE visible
03 Mar 4.8 20:43:18 10° WNW 20:46:48 16° NNW 20:50:17 10° NNE visible
03 Mar 4.9 22:31:27 10° NNW 22:33:25 12° N 22:35:23 10° NNE visible
04 Mar 4.8 00:15:40 10° NNW 00:17:23 16° N 00:17:23 16° N visible
04 Mar 3.4 18:40:01 10° WSW 18:45:27 45° NW 18:50:57 10° NNE visible
04 Mar 4.7 20:27:26 10° WNW 20:31:00 17° NNW 20:34:34 10° NNE visible
04 Mar 4.9 22:15:40 10° NNW 22:17:36 12° N 22:19:33 10° NNE visible
04 Mar 4.7 23:59:57 10° NNW 00:01:58 16° N 00:01:58 16° N visible
05 Mar 4.9 01:43:36 10° NNW 01:43:44 11° NNW 01:43:44 11° NNW visible
05 Mar 3.3 18:24:14 10° SW 18:29:43 47° NW 18:35:15 10° NNE visible
05 Mar 4.7 20:11:33 10° WNW 20:15:12 17° NNW 20:18:52 10° NNE visible
05 Mar 4.9 21:59:53 10° NNW 22:01:48 12° N 22:03:43 10° NNE visible
05 Mar 4.7 23:44:15 10° NNW 23:46:34 17° N 23:46:34 17° N visible
06 Mar 4.8 01:27:53 10° NNW 01:28:19 12° NNW 01:28:19 12° NNW visible
06 Mar 4.7 19:55:41 10° WNW 19:59:25 17° NNW 20:03:10 10° NNE visible
06 Mar 4.8 21:44:05 10° NNW 21:45:59 12° N 21:47:54 10° NNE visible
06 Mar 4.6 23:28:33 10° NNW 23:31:09 17° N 23:31:09 17° N visible
07 Mar 4.8 01:12:11 10° NNW 01:12:54 14° NNW 01:12:54 14° NNW visible
07 Mar 4.6 19:39:48 10° WNW 19:43:38 18° NNW 19:47:28 10° NNE visible
07 Mar 4.8 21:28:16 10° NNW 21:30:11 12° N 21:32:04 10° NNE visible
07 Mar 4.5 23:12:51 10° NNW 23:15:44 17° NNE 23:15:44 17° NNE visible
08 Mar 4.7 00:56:28 10° NNW 00:57:29 15° NNW 00:57:29 15° NNW visible
08 Mar 4.6 19:23:57 10° WNW 19:27:50 18° NNW 19:31:46 10° NNE visible
08 Mar 4.8 21:12:28 10° NNW 21:14:22 12° N 21:16:16 10° NNE visible
08 Mar 4.5 22:57:08 10° NNW 23:00:19 17° NNE 23:00:19 17° NNE visible
09 Mar 4.6 00:40:46 10° NNW 00:42:04 17° NNW 00:42:04 17° NNW visible
09 Mar 4.6 19:08:05 10° WNW 19:12:03 19° NNW 19:16:03 10° NNE visible
09 Mar 4.8 20:56:39 10° NNW 20:58:34 12° N 21:00:29 10° NNE visible
09 Mar 4.4 22:41:26 10° NNW 22:44:54 17° NNE 22:44:54 17° NNE visible
10 Mar 4.5 00:25:04 10° NNW 00:26:40 19° NNW 00:26:40 19° NNW visible
10 Mar 4.5 18:52:13 10° WNW 18:56:16 19° NNW 19:00:21 10° NNE visible
10 Mar 4.8 20:40:49 10° NNW 20:42:45 12° N 20:44:41 10° NNE visible
10 Mar 4.4 22:25:44 10° NNW 22:29:21 17° NNE 22:29:30 17° NNE visible
